This is the latest recevied weather packets stored in our database for station/object SR8WXB-1. If no packets are shown the sender has not sent any weather packets the latest 1 day(s).
| Time | Temp. | Humidity | Pressure | Rain* | Wind** | Luminosity | Snow |
|---|---|---|---|---|---|---|---|
| 1778008983 | 17.78° C | 100% | 938.9 hPa | - | 6.26 m/s, 237° | - | - |
| 1778008740 | 17.78° C | 100% | 938.9 hPa | - | 7.6 m/s, 236° | - | - |
| 1778008500 | 17.78° C | 100% | 938.9 hPa | - | 8.49 m/s, 237° | - | - |
| 1778008260 | 17.78° C | 100% | 938.9 hPa | - | 8.49 m/s, 237° | - | - |
| 1778008020 | 17.78° C | 100% | 938.9 hPa | - | 8.94 m/s, 235° | - | - |
| 1778007780 | 17.78° C | 100% | 938.9 hPa | - | 8.49 m/s, 235° | - | - |
| 1778007537 | 17.78° C | 100% | 938.9 hPa | - | 8.49 m/s, 236° | - | - |
| 1778007293 | 17.78° C | 100% | 938.9 hPa | - | 8.49 m/s, 233° | - | - |
| 1778007054 | 17.78° C | 100% | 938.9 hPa | - | 9.39 m/s, 233° | - | - |
| 1778006802 | 17.78° C | 100% | 938.9 hPa | - | 8.94 m/s, 235° | - | - |
| 1778006562 | 17.78° C | 100% | 938.8 hPa | - | 9.39 m/s, 236° | - | - |
| 1778006319 | 17.78° C | 100% | 938.9 hPa | - | 8.94 m/s, 234° | - | - |
| 1778006080 | 17.78° C | 100% | 938.8 hPa | - | 9.83 m/s, 234° | - | - |
| 1778005840 | 17.78° C | 100% | 938.8 hPa | - | 9.39 m/s, 234° | - | - |
| 1778005599 | 18.33° C | 100% | 938.8 hPa | - | 9.39 m/s, 236° | - | - |
| 1778005360 | 18.33° C | 100% | 938.8 hPa | - | 9.83 m/s, 237° | - | - |
| 1778005117 | 18.33° C | 100% | 938.8 hPa | - | 8.49 m/s, 237° | - | - |
| 1778004877 | 18.33° C | 100% | 938.8 hPa | - | 9.83 m/s, 237° | - | - |
| 1778004637 | 18.33° C | 100% | 938.8 hPa | - | 9.83 m/s, 237° | - | - |
| 1778004397 | 18.33° C | 100% | 938.8 hPa | - | 8.49 m/s, 236° | - | - |
| 1778004157 | 18.33° C | 100% | 938.9 hPa | - | 8.05 m/s, 235° | - | - |
| 1778003914 | 18.33° C | 100% | 938.9 hPa | - | 9.39 m/s, 235° | - | - |
| 1778003674 | 18.89° C | 100% | 938.8 hPa | - | 9.39 m/s, 237° | - | - |
| 1778003434 | 18.89° C | 100% | 938.9 hPa | - | 10.28 m/s, 237° | - | - |
| 1778003194 | 18.89° C | 100% | 938.9 hPa | - | 10.28 m/s, 239° | - | - |
* Rain since midnight (hover to see other rain measurements)
** Current wind speed in m/s (hover to see current wind gust speed)